Lyndonville, VT

11:15 PM EST on November 22, 2017 (GMT -0500)
Lyndonville

Weather History for KCDA - April, 2013

Change the Weather History Date:

Saturday, April 20, 2013

  Actual Average (K1V4) Record (K1V4)
Temperature  
Mean Temperature 40 °F -  
Max Temperature 49 °F 53 °F 89 °F (1941)
Min Temperature 32 °F 30 °F 12 °F (1897)
Degree Days  
Heating Degree Days 24    
Moisture  
Dew Point 24 °F    
Average Humidity 53    
Maximum Humidity 89    
Minimum Humidity 31    
Precipitation  
Precipitation 0.00 in - - ()
Sea Level Pressure  
Sea Level Pressure 29.87 in    
Wind  
Wind Speed 8 mph (WSW)    
Max Wind Speed 22 mph    
Max Gust Speed 32 mph    
Visibility 10 miles    
Events Rain    
Averages and records for this station are not official NWS values.
T = Trace of Precipitation, MM = Missing Value Source: NWS Daily Summary

Daily Weather History Graph

Daily Weather History Graph

Search for Another Location

Airport or City:

Trip Planner

Search our weather history database for the weather conditions in past years. The results will help you decide how hot, cold, wet, or windy it might be!

Date:

Astronomy

Apr. 20, 2013 Rise Set
Actual Time 5:55 AM EDT 7:39 PM EDT
Civil Twilight 5:24 AM EDT 8:10 PM EDT
Nautical Twilight 4:46 AM EDT 8:48 PM EDT
Astronomical Twilight 4:06 AM EDT 9:29 PM EDT
Moon 2:08 PM EDT (4/20) 2:56 AM EDT (4/20)
Length of Visible Light 14h 46m
Length of Day
13h 44m
Waxing Gibbous, 71% of the Moon is Illuminated
Apr 20
Waxing Gibbous
Apr 25
Full
May 2
Last Quarter
May 9
New
May 18
First Quarter

Hourly Weather History & Observations

Time (EDT) Temp. Windchill Dew Point Humidity Pressure Visibility Wind Dir Wind Speed Gust Speed Precip Events Conditions
4:15 AM 40.5 °F 37.3 °F 35.2 °F 82% 29.69 in 10.0 mi NW 4.6 mph - N/A Rain Rain
4:35 AM 39.4 °F 35.2 °F 35.1 °F 84% 29.69 in 7.0 mi West 5.8 mph - N/A Rain Light Rain
4:55 AM 39.0 °F 36.8 °F 35.4 °F 87% 29.69 in 7.0 mi West 3.5 mph - N/A Rain Light Rain
5:15 AM 38.7 °F 35.2 °F 34.9 °F 86% 29.72 in 7.0 mi West 4.6 mph - N/A Rain Rain
5:35 AM 38.3 °F - 34.5 °F 86% 29.71 in 7.0 mi Calm Calm - N/A Rain Rain
5:55 AM 37.8 °F - 34.3 °F 87% 29.70 in 10.0 mi Calm Calm - N/A   Overcast
6:15 AM 37.9 °F - 34.7 °F 88% 29.70 in 10.0 mi Calm Calm - N/A   Overcast
6:35 AM 37.9 °F - 34.7 °F 88% 29.71 in 10.0 mi Calm Calm - N/A   Overcast
6:55 AM 37.9 °F - 34.7 °F 88% 29.72 in 10.0 mi Calm Calm - N/A   Overcast
7:15 AM 38.3 °F - 35.2 °F 89% 29.74 in 5.0 mi Calm Calm - N/A   Overcast
7:35 AM 38.7 °F - 35.6 °F 89% 29.74 in 10.0 mi Calm Calm - N/A   Overcast
7:55 AM 39.2 °F 37.0 °F 33.4 °F 80% 29.75 in 10.0 mi South 3.5 mph - N/A   Overcast
8:15 AM 39.4 °F - 33.3 °F 79% 29.75 in 10.0 mi Calm Calm - N/A   Overcast
8:35 AM 39.6 °F 36.3 °F 33.3 °F 78% 29.74 in 10.0 mi SW 4.6 mph - N/A   Overcast
8:55 AM 40.5 °F 37.3 °F 32.4 °F 73% 29.75 in 10.0 mi SW 4.6 mph - N/A   Overcast
9:15 AM 41.4 °F 37.6 °F 31.5 °F 68% 29.75 in 10.0 mi WSW 5.8 mph - N/A   Overcast
9:35 AM 42.1 °F 37.7 °F 32.2 °F 68% 29.74 in 10.0 mi SW 6.9 mph - N/A   Overcast
9:55 AM 43.7 °F 37.7 °F 30.7 °F 60% 29.75 in 10.0 mi WSW 11.5 mph 19.6 mph N/A   Scattered Clouds
10:15 AM 44.2 °F 38.0 °F 30.2 °F 58% 29.75 in 10.0 mi West 12.7 mph - N/A   Scattered Clouds
10:35 AM 44.1 °F 38.6 °F 26.8 °F 51% 29.75 in 10.0 mi WSW 10.4 mph 20.7 mph N/A   Scattered Clouds
10:55 AM 45.0 °F 38.2 °F 26.1 °F 48% 29.76 in 10.0 mi WSW 15.0 mph 23.0 mph N/A   Scattered Clouds
11:15 AM 44.8 °F 39.0 °F 25.0 °F 46% 29.76 in 10.0 mi WSW 11.5 mph 19.6 mph N/A   Mostly Cloudy
11:35 AM 46.0 °F 39.9 °F 23.7 °F 42% 29.76 in 10.0 mi WSW 13.8 mph 27.6 mph N/A   Mostly Cloudy
11:55 AM 47.8 °F - 26.4 °F 43% 29.76 in 10.0 mi WSW 11.5 mph 17.3 mph N/A   Overcast
12:15 PM 47.1 °F - 23.4 °F 39% 29.77 in 10.0 mi West 17.3 mph 23.0 mph N/A   Overcast
12:35 PM 48.9 °F - 20.3 °F 32% 29.78 in 10.0 mi West 21.9 mph 28.8 mph N/A   Mostly Cloudy
12:55 PM 46.9 °F - 20.1 °F 35% 29.79 in 10.0 mi WSW 15.0 mph 27.6 mph N/A   Mostly Cloudy
1:15 PM 46.9 °F - 21.9 °F 37% 29.80 in 10.0 mi SW 13.8 mph 19.6 mph N/A   Overcast
1:35 PM 46.6 °F - 21.6 °F 37% 29.81 in 10.0 mi West 16.1 mph 21.9 mph N/A   Overcast
1:55 PM 47.1 °F - 22.1 °F 37% 29.81 in 10.0 mi WSW 17.3 mph 21.9 mph N/A   Overcast
2:15 PM 48.9 °F - 21.2 °F 34% 29.81 in 10.0 mi WSW 12.7 mph 20.7 mph N/A   Mostly Cloudy
2:35 PM 48.7 °F - 19.8 °F 32% 29.82 in 10.0 mi WSW 15.0 mph 21.9 mph N/A   Mostly Cloudy
2:55 PM 49.5 °F - 20.5 °F 32% 29.83 in 10.0 mi WSW 12.7 mph 21.9 mph N/A   Overcast
3:15 PM 46.6 °F - 19.2 °F 34% 29.84 in 10.0 mi WSW 12.7 mph 21.9 mph N/A   Overcast
3:35 PM 46.6 °F - 20.5 °F 36% 29.85 in 10.0 mi WSW 16.1 mph 27.6 mph N/A   Overcast
3:55 PM 46.8 °F - 20.5 °F 35% 29.86 in 10.0 mi WSW 16.1 mph 23.0 mph N/A   Overcast
4:15 PM 46.0 °F 38.3 °F 18.7 °F 34% 29.87 in 10.0 mi West 20.7 mph 28.8 mph N/A   Overcast
4:55 PM 45.5 °F 38.3 °F 18.7 °F 34% 29.90 in 10.0 mi WSW 17.3 mph 27.6 mph N/A   Mostly Cloudy
5:15 PM 46.9 °F - 17.2 °F 31% 29.91 in 10.0 mi WSW 19.6 mph 32.2 mph N/A   Overcast
5:35 PM 45.3 °F 39.7 °F 19.2 °F 35% 29.93 in 10.0 mi West 11.5 mph 20.7 mph N/A   Overcast
5:55 PM 43.2 °F 35.6 °F 19.0 °F 38% 29.95 in 10.0 mi West 16.1 mph 25.3 mph N/A   Overcast
6:15 PM 42.4 °F 35.3 °F 19.2 °F 39% 29.96 in 10.0 mi West 13.8 mph 24.2 mph N/A   Overcast
6:35 PM 42.1 °F 34.2 °F 18.5 °F 39% 29.98 in 10.0 mi WSW 16.1 mph 25.3 mph N/A   Overcast
6:55 PM 41.0 °F 35.2 °F 19.4 °F 42% 29.99 in 10.0 mi West 9.2 mph 23.0 mph N/A   Overcast
7:15 PM 40.6 °F 33.8 °F 18.7 °F 41% 30.00 in 10.0 mi West 11.5 mph 25.3 mph N/A   Overcast
7:35 PM 40.1 °F 31.0 °F 18.7 °F 42% 30.02 in 10.0 mi West 18.4 mph 24.2 mph N/A   Overcast
7:55 PM 39.2 °F 31.6 °F 17.4 °F 41% 30.05 in 10.0 mi West 12.7 mph 27.6 mph N/A   Overcast
8:15 PM 38.7 °F 30.5 °F 17.1 °F 42% 30.06 in 10.0 mi West 13.8 mph - N/A   Overcast
8:35 PM 37.8 °F 30.2 °F 17.1 °F 43% 30.08 in 10.0 mi West 11.5 mph 17.3 mph N/A   Overcast
8:55 PM 37.6 °F 28.4 °F 16.3 °F 42% 30.11 in 10.0 mi West 16.1 mph 24.2 mph N/A   Overcast
9:15 PM 37.0 °F 28.5 °F 16.7 °F 44% 30.11 in 10.0 mi West 13.8 mph 17.3 mph N/A   Overcast
9:35 PM 36.5 °F 26.3 °F 17.1 °F 45% 30.13 in 10.0 mi West 18.4 mph 23.0 mph N/A   Overcast
9:55 PM 36.0 °F 27.1 °F 16.0 °F 44% 30.13 in 10.0 mi West 13.8 mph 20.7 mph N/A   Overcast
10:15 PM 36.0 °F 29.6 °F 15.8 °F 44% 30.15 in 10.0 mi West 8.1 mph - N/A   Overcast
10:55 PM 34.9 °F 24.6 °F 17.6 °F 49% 30.17 in 10.0 mi West 17.3 mph 23.0 mph N/A   Overcast
11:15 PM 33.3 °F 21.8 °F 17.2 °F 52% 30.17 in 10.0 mi West 19.6 mph 32.2 mph N/A   Overcast
11:35 PM 32.5 °F 22.3 °F 17.1 °F 53% 30.20 in 10.0 mi West 15.0 mph 27.6 mph N/A   Overcast
11:55 PM 32.4 °F 24.0 °F 17.1 °F 53% 30.22 in 10.0 mi West 10.4 mph 13.8 mph N/A   Overcast